Starlink 31117

operational
NORAD ID: 58776 Int'l Des: 2024-011 Owner: SPXS Country: US Constellation: starlink
LEOCIRCULAR

Über Starlink 31117

Beschreibung wird geladen...

Live-Position

3D-Globus wird geladen...

Nächste Überflüge

Höhenverlauf

Altitude vs Time

uPlot chart will show altitude changes over time

Zweizeiliger Elementsatz

1 58776U 24011M 25304.86563774 -.00000189 00000-0 57459-5 0 9995
2 58776 53.1600 252.2664 0001339 85.7431 274.3722 15.30181202100541
Epoch: 31. Okt. 2025 • Age: 12 hours

Aktueller Status

Höhe 477.2 km
Geschwindigkeit 7.63 km/s
Subsatellitenpunkt -5.34°S, 95.31°W
Startdatum 14. Jan. 2024
Alter 1.7 years
Typ internet

Technische Details

Klassifizierung Payload
Masse 730.00 kg
Trockenmasse 700.00 kg
Gesamtmasse 730.00 kg
Länge 0.30 m
Durchmesser 4.10 m
Spannweite 29.00 m
Form Box + pan
Hersteller SPXS
Bus-Typ Starlink V2M
Phasenstatus In Orbit
Besitzer/Staat SPXS/US

Große Konstellationen

Loading constellations...